Regional Weather Roundup
Issued by NWS

Home | Current Version | Previous Version | Text Only | Print | Product List | Glossary Off
Versions: 1 2 3 4 5 6 7 8 9 10 11 12 13 14 15 16 17 18 19 20 21 22 23 24 25 26 27

000
ASUS45 KBOU 250010
RWRCO

WEATHER ROUNDUP FOR COLORADO
NATIONAL WEATHER SERVICE DENVER/BOULDER CO
600 PM MDT THU MAY 24 2018

NOTE: "FAIR" INDICATES FEW OR NO CLOUDS BELOW 12000 FEET WITH NO
SIGNIFICANT WEATHER AND/OR OBSTRUCTIONS TO VISIBILITY.

COZ001>005-013-030-031-250100-
...NORTHWEST COLORADO...

CITY           SKY/WX    TMP DP  RH WIND       PRES   REMARKS
CRAIG          FAIR      77  30  17 W9        30.15F
HAYDEN         FAIR      73  30  20 W8G17     30.19S
MEEKER         FAIR      76  28  17 CALM      30.15F
RANGELY        FAIR      83  30  15 NW9G16    30.07S
RABBIT EARS PA FAIR      54  32  43 W7G18     30.45R
STEAMBOAT SPGS FAIR      72  31  22 W13       30.20F
WALDEN         FAIR      66  28  24 SW18G24   30.29F
$$

COZ006>008-011-250100-
...WEST CENTRAL VALLEYS...

CITY           SKY/WX    TMP DP  RH WIND       PRES   REMARKS
GRAND JUNCTION FAIR      85  25  11 MISG      30.03F
MONTROSE       FAIR      81  20  10 N6        30.10F
EAGLE          FAIR      79  24  13 W14       30.17F
RIFLE          FAIR      83  16   8 W14       30.08F
DELTA          FAIR      88  19   8 SW12      30.05F
NUCLA          FAIR      82  14   7 SW5       30.14S
$$

COZ017>023-064>068-250100-
...SOUTHWEST COLORADO...

CITY           SKY/WX    TMP DP  RH WIND       PRES   REMARKS
DURANGO        FAIR      78   4   5 W14       30.18F
CORTEZ         FAIR      82  17   9 SW6G16    30.13F
PAGOSA SPRINGS FAIR      76 -11   3 W12       30.26F
TELLURIDE      PTSUNNY   69  16  13 S6        30.34F
WOLF CREEK PAS FAIR      52  10  19 SW14G23   30.59F
$$

COZ009-010-012-014-032>034-037-058>063-250100-
...CENTRAL COLORADO...

CITY           SKY/WX    TMP DP  RH WIND       PRES   REMARKS
ASPEN          FAIR      73  25  16 N9        30.24F
BUENA VISTA    FAIR      75  15  10 NW12G21   30.22F
COPPER MTN     FAIR      54  23  30 NW9       30.55S
BERTHOUD PASS  PTSUNNY   45  34  65 NW18G25   30.58S
COTTONWOOD PAS FAIR      72   5   7 CALM      30.37F
GUNNISON       FAIR      74  22  14 VRB7      30.22F
GRANBY         FAIR      64  31  29 W9        30.29R
KREMMLING      FAIR      77  27  15 NW6G16    30.23F
LEADVILLE      FAIR      62  18  18 W9        30.38S
MONARCH PASS   FAIR      59  14  17 MISG      30.63R
SALIDA         FAIR      79  17  10 SW10      30.26S
SUNLIGHT       FAIR      57  23  26 W8        30.49S
WILKERSON PASS CLOUDY    61  12  15 CALM      30.51S
$$

COZ069>075-250100-
...SAN LUIS VALLEY/SANGRE DE CRISTO MOUNTAINS...

CITY           SKY/WX    TMP DP  RH WIND       PRES   REMARKS
ALAMOSA        FAIR      77  14   9 SW16G26   30.20F
DEL NORTE      FAIR      75  15  10 SW20G26   30.23F
LA VETA PASS   FAIR      64  18  16 S13       30.51S
SAGUACHE       NOT AVBL
$$

COZ035-036-038>040-250100-
...NORTHERN COLORADO FRONT RANGE...

CITY           SKY/WX    TMP DP  RH WIND       PRES   REMARKS
DENVER INTL AP PTSUNNY   83  37  19 SE16G37   30.06S
AURORA         PTSUNNY   77  39  25 SE15      30.09R
FRONT RANGE AP PTSUNNY   82  36  18 SE20      30.08S
ERIE MUNI ARPT FAIR      83  30  15 NE9       30.08S
BOULDER MUN AP FAIR      81  37  21 NE7       30.04S
CENTENNIAL     PTSUNNY   77  37  23 SE10      30.10R
BROOMFIELD     PTSUNNY   82  28  14 CALM      30.07F
FORT COLLINS   LGT RAIN  73  41  31 SW8G23    30.05S
LONGMONT       FAIR      83  41  23 E3        30.05S
$$

COZ041-046-047-076>085-087-088-250100-
...PIKES PEAK/PALMER DIVIDE AND SOUTHERN FOOTHILLS...

CITY           SKY/WX    TMP DP  RH WIND       PRES   REMARKS
COLO. SPRINGS  PTSUNNY   76  37  24 NE22      30.12R
A. F. ACADEMY  FAIR      73  28  19 NE10      30.14S
SCHRIEVER AFB  NOT AVBL
CHEYENNE MTN   PTSUNNY   72  33  24 NE9G16    30.14R
ELLICOTT       NOT AVBL
FALCON         NOT AVBL
FORT CARSON    FAIR      79  37  21 NE24G31   30.07S
LIMON          FAIR      78  36  21 E8        30.09F
MONUMENT HILL  FAIR      72  34  25 S8        30.21S
CANON CITY     SUNNY     84  21  10 CALM      30.02S
WALSENBURG     FAIR      88  21   8 SW16G23   30.07F
TRINIDAD       FAIR      84  34  16 SE13      30.06S
$$

COZ042>045-048>051-090-091-250100-
...NORTHEAST COLORADO...

CITY           SKY/WX    TMP DP  RH WIND       PRES   REMARKS
GREELEY ARPT   FAIR      80  36  20 W25G39    30.03S
AKRON          FAIR      82  38  20 CALM      30.04S
BURLINGTON     PTSUNNY   68  50  52 W9        30.03S THUNDER
WRAY           FAIR      84  50  30 E12       29.98F
YUMA           FAIR      82  39  21 CALM      30.00S
STERLING       FAIR      82  43  24 N6        29.98F
HOLYOKE        FAIR      84  45  24 E6        29.98F
FORT MORGAN    FAIR      85  29  13 NW3       30.02F
$$

COZ086-089-092>099-250100-
...SOUTHEAST COLORADO...

CITY           SKY/WX    TMP DP  RH WIND       PRES   REMARKS
PUEBLO         FAIR      91  20   7 S12       29.96F
LA JUNTA       FAIR      87  41  19 NE15G26   29.96F
LAMAR          FAIR      86  43  22 NE13      29.92F
SPRINGFIELD      N/A     88  41  19 S20G31    29.94F
$$




USA.gov is the U.S. government's official web portal to all federal, state and local government web resources and services.